| time (UTC) | temp C | wind direction | speed KPH | gust KPH | rain 1hr cm | rain 24hr cm | rain mn cm | humidity % | barometer mb |
| 20260906021537 | 27 | 28 | 11.3 | 20.9 | 0.00 | 0.00 | 0.00 | 39 | 1012.1 |
| 20260906020044 | 27 | 32 | 11.3 | 22.5 | 0.00 | 0.00 | 0.00 | 39 | 1011.7 |
| 20260906014549 | 27 | 40 | 6.4 | 9.7 | 0.00 | 0.00 | 0.00 | 39 | 1011.5 |
| 20260906013035 | 27 | 28 | 6.4 | 9.7 | 0.00 | 0.00 | 0.00 | 39 | 1011.2 |
| 20260906011540 | 26 | 18 | 6.4 | 8.0 | 0.00 | 0.00 | 0.00 | 39 | 1011.2 |
| 20260906010034 | 27 | 14 | 4.8 | 8.0 | 0.00 | 0.00 | 0.00 | 39 | 1010.9 |
| 20260906004538 | 27 | 14 | 8.0 | 11.3 | 0.00 | 0.00 | 0.00 | 39 | 1010.8 |
| 20260906003046 | 28 | 23 | 6.4 | 9.7 | 0.00 | 0.00 | 0.00 | 39 | 1010.7 |
| 20260906001533 | 29 | 28 | 6.4 | 12.9 | 0.00 | 0.00 | 0.00 | 39 | 1010.5 |
| 20260906000033 | 30 | 17 | 6.4 | 12.9 | 0.00 | 0.00 | 0.00 | 39 | 1010.8 |
| 20260905234532 | 31 | 17 | 8.0 | 14.5 | 0.00 | 0.00 | 0.00 | 39 | 1010.8 |
| 20260905233032 | 31 | 26 | 8.0 | 16.1 | 0.00 | 0.00 | 0.00 | 39 | 1010.8 |
| 20260905231536 | 32 | 24 | 9.7 | 14.5 | 0.00 | 0.00 | 0.00 | 39 | 1010.8 |
| 20260905230031 | 32 | 20 | 9.7 | 14.5 | 0.00 | 0.00 | 0.00 | 39 | 1010.8 |
| 20260905224533 | 32 | 10 | 6.4 | 17.7 | 0.00 | 0.00 | 0.00 | 39 | 1010.6 |
| 20260905223029 | 32 | 26 | 9.7 | 17.7 | 0.00 | 0.00 | 0.00 | 39 | 1010.4 |
| 20260905221529 | 32 | 329 | 9.7 | 20.9 | 0.00 | 0.00 | 0.00 | 39 | 1010.6 |
| 20260905220028 | 32 | 9 | 9.7 | 14.5 | 0.00 | 0.00 | 0.00 | 39 | 1010.5 |
| 20260905214527 | 32 | 13 | 9.7 | 16.1 | 0.00 | 0.00 | 0.00 | 39 | 1010.6 |
| 20260905213038 | 32 | 350 | 12.9 | 20.9 | 0.00 | 0.00 | 0.00 | 39 | 1010.6 |
| 20260905211531 | 33 | 12 | 12.9 | 19.3 | 0.00 | 0.00 | 0.00 | 39 | 1010.5 |
| 20260905210026 | 33 | 9 | 12.9 | 22.5 | 0.00 | 0.00 | 0.00 | 39 | 1010.6 |
| 20260905204524 | 33 | 336 | 11.3 | 17.7 | 0.00 | 0.00 | 0.00 | 39 | 1010.7 |
| 20260905203024 | 33 | 5 | 17.7 | 22.5 | 0.00 | 0.00 | 0.00 | 39 | 1010.9 |
| 20260905201522 | 33 | 351 | 17.7 | 24.1 | 0.00 | 0.00 | 0.00 | 39 | 1011.1 |
| 20260905200020 | 33 | 319 | 11.3 | 20.9 | 0.00 | 0.00 | 0.00 | 39 | 1011.0 |
| 20260905194520 | 33 | 355 | 11.3 | 20.9 | 0.00 | 0.00 | 0.00 | 39 | 1011.1 |
| 20260905193019 | 33 | 343 | 9.7 | 20.9 | 0.00 | 0.00 | 0.00 | 39 | 1011.1 |
| 20260905191519 | 33 | 319 | 6.4 | 19.3 | 0.00 | 0.00 | 0.00 | 39 | 1011.2 |
| 20260905190016 | 34 | 336 | 8.0 | 17.7 | 0.00 | 0.00 | 0.00 | 39 | 1011.3 |
| 20260905184512 | 33 | 330 | 9.7 | 19.3 | 0.00 | 0.00 | 0.00 | 39 | 1011.5 |
| 20260905183008 | 33 | 344 | 6.4 | 17.7 | 0.00 | 0.00 | 0.00 | 39 | 1011.7 |
| 20260905181505 | 33 | 323 | 11.3 | 17.7 | 0.00 | 0.00 | 0.00 | 39 | 1011.8 |
| 20260905174556 | 32 | 339 | 11.3 | 19.3 | 0.00 | 0.00 | 0.00 | 39 | 1012.1 |
| 20260905173052 | 32 | 331 | 8.0 | 14.5 | 0.00 | 0.00 | 0.00 | 39 | 1012.1 |
| 20260905171549 | 32 | 339 | 6.4 | 16.1 | 0.00 | 0.00 | 0.00 | 39 | 1012.2 |
| 20260905170053 | 32 | 350 | 8.0 | 16.1 | 0.00 | 0.00 | 0.00 | 39 | 1012.3 |
| 20260905164546 | 32 | 330 | 6.4 | 14.5 | 0.00 | 0.00 | 0.00 | 39 | 1012.4 |
| 20260905163042 | 31 | 335 | 9.7 | 14.5 | 0.00 | 0.00 | 0.00 | 39 | 1012.5 |
| 20260905161541 | 31 | 329 | 4.8 | 9.7 | 0.00 | 0.00 | 0.00 | 39 | 1012.5 |
| 20260905160046 | 31 | 323 | 4.8 | 6.4 | 0.00 | 0.00 | 0.00 | 39 | 1012.5 |
| 20260905154542 | 31 | 321 | 4.8 | 12.9 | 0.00 | 0.00 | 0.00 | 39 | 1012.5 |
| 20260905153039 | 31 | 291 | 6.4 | 11.3 | 0.00 | 0.00 | 0.00 | 39 | 1012.4 |
| 20260905151536 | 31 | 267 | 4.8 | 11.3 | 0.00 | 0.00 | 0.00 | 39 | 1012.4 |
| 20260905150035 | 30 | 264 | 6.4 | 11.3 | 0.00 | 0.00 | 0.00 | 39 | 1012.2 |
| 20260905144535 | 30 | 251 | 6.4 | 8.0 | 0.00 | 0.00 | 0.00 | 39 | 1012.0 |
| 20260905143026 | 28 | 228 | 4.8 | 8.0 | 0.00 | 0.00 | 0.00 | 39 | 1012.0 |
| 20260905141521 | 27 | 219 | 3.2 | 6.4 | 0.00 | 0.00 | 0.00 | 39 | 1012.1 |
| 20260905140020 | 28 | 219 | 3.2 | 8.0 | 0.00 | 0.00 | 0.00 | 39 | 1012.3 |
| 20260905134520 | 27 | 216 | 4.8 | 8.0 | 0.00 | 0.00 | 0.00 | 39 | 1012.2 |
| 20260905133014 | 26 | 215 | 0.0 | 3.2 | 0.00 | 0.00 | 0.00 | 39 | 1012.3 |
| 20260905131516 | 26 | 215 | 0.0 | 3.2 | 0.00 | 0.00 | 0.00 | 39 | 1012.2 |
| 20260905130005 | 25 | 215 | 1.6 | 4.8 | 0.00 | 0.00 | 0.00 | 39 | 1012.2 |
| 20260905124501 | 24 | 215 | 0.0 | 0.0 | 0.00 | 0.00 | 0.00 | 39 | 1012.1 |
| 20260905123104 | 23 | 215 | 0.0 | 1.6 | 0.00 | 0.00 | 0.00 | 39 | 1012.0 |
| 20260905121556 | 23 | 215 | 1.6 | 3.2 | 0.00 | 0.00 | 0.00 | 39 | 1012.0 |
| 20260905114541 | 22 | 215 | 0.0 | 0.0 | 0.00 | 0.00 | 0.00 | 39 | 1011.4 |
| 20260905113037 | 22 | 215 | 1.6 | 6.4 | 0.00 | 0.00 | 0.00 | 39 | 1011.4 |
| 20260905111533 | 22 | 215 | 1.6 | 4.8 | 0.00 | 0.00 | 0.00 | 39 | 1011.2 |
| 20260905110033 | 22 | 215 | 0.0 | 3.2 | 0.00 | 0.00 | 0.00 | 39 | 1011.1 |
| 20260905104530 | 22 | 215 | 1.6 | 4.8 | 0.00 | 0.00 | 0.00 | 39 | 1011.1 |
| 20260905103029 | 22 | 215 | 3.2 | 6.4 | 0.00 | 0.00 | 0.00 | 39 | 1011.2 |
| 20260905101539 | 22 | 215 | 1.6 | 3.2 | 0.00 | 0.00 | 0.00 | 39 | 1011.2 |
| 20260905100028 | 22 | 215 | 1.6 | 3.2 | 0.00 | 0.00 | 0.00 | 39 | 1011.3 |
| 20260905094525 | 22 | 215 | 3.2 | 4.8 | 0.00 | 0.00 | 0.00 | 39 | 1011.3 |
| 20260905093025 | 22 | 215 | 0.0 | 3.2 | 0.00 | 0.00 | 0.00 | 39 | 1011.4 |
| 20260905091525 | 23 | 215 | 3.2 | 6.4 | 0.00 | 0.00 | 0.00 | 39 | 1011.3 |
| 20260905090023 | 23 | 215 | 3.2 | 4.8 | 0.00 | 0.00 | 0.00 | 39 | 1011.5 |
| 20260905084522 | 23 | 215 | 3.2 | 9.7 | 0.00 | 0.00 | 0.00 | 39 | 1011.5 |
| 20260905083027 | 23 | 198 | 4.8 | 12.9 | 0.00 | 0.00 | 0.00 | 39 | 1011.5 |
| 20260905081521 | 22 | 149 | 0.0 | 1.6 | 0.00 | 0.00 | 0.00 | 39 | 1011.5 |
| 20260905080020 | 22 | 149 | 0.0 | 0.0 | 0.00 | 0.00 | 0.00 | 39 | 1011.7 |
| 20260905074518 | 23 | 149 | 0.0 | 0.0 | 0.00 | 0.00 | 0.00 | 39 | 1011.8 |
| 20260905073022 | 23 | 149 | 0.0 | 1.6 | 0.00 | 0.00 | 0.00 | 39 | 1011.8 |
| 20260905071515 | 23 | 149 | 0.0 | 0.0 | 0.00 | 0.00 | 0.00 | 39 | 1011.8 |
| 20260905070016 | 23 | 149 | 0.0 | 3.2 | 0.00 | 0.00 | 0.00 | 39 | 1011.8 |
| 20260905064521 | 23 | 149 | 3.2 | 8.0 | 0.00 | 0.00 | 0.00 | 39 | 1011.8 |
| 20260905063013 | 23 | 149 | 1.6 | 4.8 | 0.00 | 0.00 | 0.00 | 39 | 1011.7 |
| 20260905061512 | 23 | 149 | 0.0 | 3.2 | 0.00 | 0.00 | 0.00 | 39 | 1011.8 |
| 20260905060018 | 23 | 149 | 0.0 | 4.8 | 0.00 | 0.00 | 0.00 | 39 | 1011.8 |
| 20260905054507 | 25 | 148 | 0.0 | 3.2 | 0.00 | 0.00 | 0.00 | 39 | 1011.7 |
| 20260905053017 | 25 | 148 | 1.6 | 8.0 | 0.00 | 0.00 | 0.00 | 39 | 1011.6 |
| 20260905051503 | 25 | 111 | 1.6 | 6.4 | 0.00 | 0.00 | 0.00 | 39 | 1011.6 |
| 20260905050100 | 25 | 110 | 3.2 | 6.4 | 0.00 | 0.00 | 0.00 | 39 | 1011.5 |
| 20260905044605 | 25 | 58 | 1.6 | 3.2 | 0.00 | 0.00 | 0.00 | 39 | 1011.7 |
| 20260905043059 | 25 | 57 | 1.6 | 4.8 | 0.00 | 0.00 | 0.00 | 39 | 1011.8 |
| 20260905041559 | 25 | 57 | 1.6 | 4.8 | 0.00 | 0.00 | 0.00 | 39 | 1011.9 |
| 20260905040058 | 25 | 57 | 0.0 | 4.8 | 0.00 | 0.00 | 0.00 | 39 | 1011.9 |
| 20260905034557 | 26 | 57 | 1.6 | 3.2 | 0.00 | 0.00 | 0.00 | 39 | 1011.9 |
| 20260905033102 | 26 | 57 | 0.0 | 3.2 | 0.00 | 0.00 | 0.00 | 39 | 1011.9 |
| 20260905031559 | 25 | 57 | 1.6 | 4.8 | 0.00 | 0.00 | 0.00 | 39 | 1011.8 |
| 20260905030120 | 26 | 57 | 0.0 | 1.6 | 0.00 | 0.00 | 0.00 | 39 | 1011.7 |
| 20260905024558 | 26 | 57 | 0.0 | 3.2 | 0.00 | 0.00 | 0.00 | 39 | 1011.5 |
| 20260905023057 | 26 | 57 | 0.0 | 3.2 | 0.00 | 0.00 | 0.00 | 39 | 1011.4 |